Regional Weather Roundup
Issued by NWS

Home | Current Version | Previous Version | Text Only | Print | Product List | Glossary On
Versions: 1 2 3 4 5 6 7 8 9 10 11 12 13 14 15 16 17 18 19 20 21 22 23 24 25 26 27 28 29 30 31 32 33 34 35 36 37 38 39 40 41 42 43 44 45 46 47 48 49 50
000
ASUS43 KOAX 221902
RWRNE

WEATHER ROUNDUP FOR NEBRASKA
NATIONAL WEATHER SERVICE OMAHA NE
200 PM CDT TUE AUG 22 2017

NOTES: SATELLITE DATA IS BEING USED TO AUGMENT CLOUD COVER ABOVE
       12000 FEET.
       "FAIR" INDICATES FEW OR NO CLOUDS BELOW 12,000 FEET WITH NO
       SIGNIFICANT WEATHER AND/OR OBSTRUCTIONS TO VISIBILITY.


NEZ001>004-019>022-054>056-222000-
NEBRASKA PANHANDLE

CITY           SKY/WX    TMP DP  RH WIND       PRES   REMARKS
SCOTTSBLUFF    SUNNY     81  49  32 S14       30.24F
ALLIANCE       SUNNY     77  46  33 S12       30.27F
CHADRON        SUNNY     81  42  25 S14G21    30.21F
GORDON         FAIR      78  41  26 SW8       30.25F
KIMBALL        SUNNY     74  50  42 S17G23    30.31F
SIDNEY         SUNNY     78  45  30 S14G22    30.30F
$$

NEZ057>060-069>072-079>082-222000-
SOUTHWEST NEBRASKA

CITY           SKY/WX    TMP DP  RH WIND       PRES   REMARKS
NORTH PLATTE   SUNNY     77  53  43 E6        30.26F
IMPERIAL       SUNNY     78  44  29 SE12G17   30.28F
LEXINGTON      SUNNY     74  52  46 CALM      30.27S
MCCOOK         SUNNY     79  50  36 SE7       30.26F
OGALLALA       SUNNY     77  46  33 S8        30.28F
$$

NEZ005>010-023>029-035>040-094-222000-
NORTH CENTRAL NEBRASKA

CITY           SKY/WX    TMP DP  RH WIND       PRES   REMARKS
VALENTINE      SUNNY     78  41  26 NW3       30.24F
AINSWORTH      SUNNY     72  48  42 CALM      30.26S
BROKEN BOW     SUNNY     75  47  36 SE5       30.26F
O`NEILL        SUNNY     72  48  42 N5        30.24S
ORD            SUNNY     75  43  31 E7        30.23S
THEDFORD       SUNNY     77  47  34 E7        30.26F
$$

NEZ041-046>049-061>064-073>077-083>087-222000-
SOUTH CENTRAL NEBRASKA

CITY           SKY/WX    TMP DP  RH WIND       PRES   REMARKS
GRAND ISLAND   SUNNY     75  47  36 N8        30.24S
AURORA         SUNNY     73  50  44 N8        30.24R
HASTINGS       SUNNY     74  49  41 VRB6      30.25S
HEBRON         SUNNY     79  52  39 NE9       30.20F
HOLDREGE       SUNNY     72  50  46 E8        30.27S
KEARNEY        SUNNY     74  52  46 VRB3      30.26F
$$

NEZ011>018-030>034-042>045-222000-
NORTHEAST NEBRASKA

CITY           SKY/WX    TMP DP  RH WIND       PRES   REMARKS
NORFOLK        SUNNY     73  52  47 N12       30.20F
ALBION         SUNNY     73  51  45 N7        30.23S
BLAIR          SUNNY     73  50  43 NW9       30.18S
COLUMBUS       SUNNY     73  54  51 N9        30.22S
FREMONT        SUNNY     74  49  41 NW9       30.20S
TEKAMAH        SUNNY     74  50  42 N7        30.18S
WAYNE          SUNNY     72  44  36 N8        30.20S
$$

NEZ050>053-065>068-078-088>093-222000-
SOUTHEAST NEBRASKA

CITY           SKY/WX    TMP DP  RH WIND       PRES   REMARKS
LINCOLN        SUNNY     76  51  41 NE10      30.21R
OMAHA EPPLEY   MOSUNNY   76  47  35 N14       30.17S
BEATRICE       SUNNY     76  54  46 N9        30.19S
FALLS CITY     SUNNY     75  53  46 N15       30.15R
NEBRASKA CITY  SUNNY     74  52  45 N7        30.18S
PLATTSMOUTH    SUNNY     74  48  40 NW8       30.18S
$$

NEZ044-045-051>053-067-222000-
OMAHA AREA

CITY           SKY/WX    TMP DP  RH WIND       PRES   REMARKS
OMAHA EPPLEY   MOSUNNY   76  47  35 N14       30.17S
BLAIR          SUNNY     73  50  43 NW9       30.18S
FREMONT        SUNNY     74  49  41 NW9       30.20S
MILLARD        SUNNY     76  48  37 N7        30.18S
OFFUTT AFB     SUNNY     76  44  31 NW8       30.17S
PLATTSMOUTH    SUNNY     74  48  40 NW8       30.18S
WAHOO          FAIR      73  52  46 N7        30.19F
$$



USA.gov is the U.S. government's official web portal to all federal, state and local government web resources and services.